Stündliche Wetter Caxhuacán

Heute, 29 Oktober, Donnerstag

Zeit Temperatur Niederschläge Wind Luftdruck Luftfeuchtigkeit
00:00 +20°C° 0.3 mm 1 m/S 697 mmHg 98%
01:00 +20°C° 0.3 mm 1 m/S 697 mmHg 98%
02:00 +20°C° 0.3 mm 1 m/S 697 mmHg 98%
03:00 +19°C° 0.2 mm 1 m/S 697 mmHg 97%
04:00 +19°C° 0.2 mm 1 m/S 698 mmHg 97%
05:00 +19°C° 0.2 mm 1 m/S 698 mmHg 96%
06:00 +18°C° 0 mm 1 m/S 699 mmHg 95%
07:00 +18°C° 0 mm 1 m/S 699 mmHg 94%
08:00 +18°C° 0 mm 1 m/S 700 mmHg 92%
09:00 +19°C° 0 mm 1 m/S 700 mmHg 88%
10:00 +20°C° 0 mm 1 m/S 699 mmHg 83%
11:00 +21°C° 0 mm 1 m/S 699 mmHg 79%
12:00 +20°C° 0 mm 1 m/S 699 mmHg 79%
13:00 +20°C° 0 mm 1 m/S 698 mmHg 80%
14:00 +20°C° 0 mm 1 m/S 698 mmHg 81%
15:00 +19°C° 0 mm 1 m/S 698 mmHg 83%
16:00 +19°C° 0 mm 1 m/S 699 mmHg 85%
17:00 +18°C° 0 mm 1 m/S 699 mmHg 88%
18:00 +18°C° 0 mm 1 m/S 700 mmHg 87%
19:00 +18°C° 0 mm 1 m/S 700 mmHg 87%
20:00 +18°C° 0 mm 1 m/S 701 mmHg 87%
21:00 +18°C° 0 mm 1 m/S 701 mmHg 86%
22:00 +18°C° 0 mm 1 m/S 701 mmHg 85%
23:00 +18°C° 0 mm 1 m/S 701 mmHg 83%

Morgen, 30 Oktober, Freitag

Zeit Temperatur Niederschläge Wind Luftdruck Luftfeuchtigkeit
00:00 +16°C° 0 mm 0 m/S 701 mmHg 83%
01:00 +16°C° 0 mm 0 m/S 700 mmHg 82%
02:00 +16°C° 0 mm 0 m/S 700 mmHg 82%
03:00 +16°C° 0 mm 0 m/S 700 mmHg 83%
04:00 +16°C° 0 mm 0 m/S 700 mmHg 83%
05:00 +15°C° 0 mm 0 m/S 701 mmHg 84%
06:00 +16°C° 0 mm 0 m/S 701 mmHg 83%
07:00 +17°C° 0 mm 0 m/S 702 mmHg 81%
08:00 +17°C° 0 mm 0 m/S 702 mmHg 80%
09:00 +20°C° 0 mm 1 m/S 702 mmHg 78%
10:00 +20°C° 0 mm 1 m/S 702 mmHg 76%
11:00 +20°C° 0 mm 2 m/S 702 mmHg 74%
12:00 +20°C° 0 mm 1 m/S 701 mmHg 75%
13:00 +20°C° 0 mm 1 m/S 700 mmHg 77%
14:00 +20°C° 0 mm 1 m/S 699 mmHg 78%
15:00 +19°C° 0 mm 1 m/S 700 mmHg 80%
16:00 +19°C° 0 mm 1 m/S 700 mmHg 82%
17:00 +16°C° 0 mm 0 m/S 700 mmHg 83%
18:00 +16°C° 0 mm 0 m/S 700 mmHg 85%
19:00 +16°C° 0 mm 0 m/S 701 mmHg 86%
20:00 +15°C° 0 mm 0 m/S 701 mmHg 87%
21:00 +15°C° 0 mm 0 m/S 701 mmHg 87%
22:00 +15°C° 0 mm 0 m/S 701 mmHg 88%
23:00 +15°C° 0 mm 0 m/S 701 mmHg 88%

übermorgen, 31 Oktober, Samstag

Zeit Temperatur Niederschläge Wind Luftdruck Luftfeuchtigkeit
00:00 +14°C° 0 mm 0 m/S 700 mmHg 88%
01:00 +14°C° 0 mm 0 m/S 700 mmHg 88%
02:00 +14°C° 0 mm 0 m/S 699 mmHg 89%
03:00 +14°C° 0 mm 0 m/S 700 mmHg 89%
04:00 +14°C° 0 mm 0 m/S 700 mmHg 89%
05:00 +14°C° 0 mm 0 m/S 700 mmHg 89%
06:00 +16°C° 0 mm 1 m/S 700 mmHg 83%
07:00 +19°C° 0 mm 1 m/S 701 mmHg 77%
08:00 +21°C° 0 mm 1 m/S 701 mmHg 72%
09:00 +21°C° 0 mm 1 m/S 701 mmHg 72%
10:00 +22°C° 0 mm 1 m/S 700 mmHg 72%
11:00 +21°C° 0 mm 2 m/S 700 mmHg 72%
12:00 +22°C° 0 mm 1 m/S 699 mmHg 75%
13:00 +22°C° 0 mm 1 m/S 699 mmHg 77%
14:00 +21°C° 0 mm 1 m/S 698 mmHg 80%
15:00 +21°C° 0 mm 1 m/S 698 mmHg 84%
16:00 +20°C° 0 mm 1 m/S 699 mmHg 88%
17:00 +18°C° 0 mm 0 m/S 699 mmHg 92%
18:00 +18°C° 0 mm 0 m/S 699 mmHg 92%
19:00 +17°C° 0 mm 0 m/S 700 mmHg 92%
20:00 +17°C° 0 mm 0 m/S 700 mmHg 92%
21:00 +17°C° 0 mm 0 m/S 700 mmHg 92%
22:00 +17°C° 0 mm 0 m/S 700 mmHg 91%
23:00 +17°C° 0 mm 0 m/S 701 mmHg 91%

1 November, Sonntag

Zeit Temperatur Niederschläge Wind Luftdruck Luftfeuchtigkeit
00:00 +17°C° 0 mm 0 m/S 700 mmHg 91%
01:00 +17°C° 0 mm 0 m/S 700 mmHg 92%
02:00 +16°C° 0 mm 0 m/S 700 mmHg 92%
03:00 +16°C° 0 mm 0 m/S 700 mmHg 92%
04:00 +16°C° 0 mm 0 m/S 700 mmHg 92%
05:00 +16°C° 0 mm 0 m/S 700 mmHg 92%
06:00 +17°C° 0 mm 0 m/S 701 mmHg 89%
07:00 +20°C° 0 mm 1 m/S 701 mmHg 86%
08:00 +21°C° 0 mm 1 m/S 702 mmHg 83%
09:00 +21°C° 0 mm 1 m/S 702 mmHg 83%
10:00 +21°C° 0 mm 1 m/S 701 mmHg 83%
11:00 +22°C° 0 mm 1 m/S 701 mmHg 83%
12:00 +21°C° 0 mm 1 m/S 701 mmHg 85%
13:00 +21°C° 0 mm 1 m/S 700 mmHg 87%
14:00 +21°C° 0 mm 1 m/S 700 mmHg 88%
15:00 +21°C° 0 mm 1 m/S 700 mmHg 89%
16:00 +20°C° 0 mm 1 m/S 701 mmHg 89%
17:00 +20°C° 0 mm 1 m/S 702 mmHg 90%
18:00 +20°C° 0.2 mm 1 m/S 702 mmHg 91%
19:00 +20°C° 0.2 mm 1 m/S 703 mmHg 92%
20:00 +19°C° 0.2 mm 1 m/S 703 mmHg 93%
21:00 +19°C° 2.7 mm 1 m/S 703 mmHg 94%
22:00 +19°C° 2.7 mm 1 m/S 703 mmHg 96%
23:00 +19°C° 2.7 mm 1 m/S 703 mmHg 97%

2 November, Montag

Zeit Temperatur Niederschläge Wind Luftdruck Luftfeuchtigkeit
00:00 +19°C° 4.3 mm 1 m/S 703 mmHg 97%
01:00 +18°C° 4.3 mm 2 m/S 703 mmHg 97%
02:00 +18°C° 4.3 mm 2 m/S 703 mmHg 97%
03:00 +18°C° 1.4 mm 2 m/S 703 mmHg 96%
04:00 +18°C° 1.4 mm 2 m/S 703 mmHg 95%
05:00 +18°C° 1.4 mm 2 m/S 704 mmHg 94%
06:00 +19°C° 0.2 mm 1 m/S 704 mmHg 93%
07:00 +19°C° 0.2 mm 1 m/S 705 mmHg 91%
08:00 +19°C° 0.2 mm 1 m/S 705 mmHg 90%
09:00 +19°C° 1.5 mm 1 m/S 705 mmHg 92%
10:00 +19°C° 1.5 mm 1 m/S 704 mmHg 94%
11:00 +18°C° 1.5 mm 1 m/S 704 mmHg 96%
12:00 +18°C° 1.3 mm 1 m/S 704 mmHg 96%
13:00 +18°C° 1.3 mm 1 m/S 703 mmHg 96%
14:00 +18°C° 1.3 mm 1 m/S 703 mmHg 96%
15:00 +18°C° 2.5 mm 1 m/S 703 mmHg 96%
16:00 +18°C° 2.5 mm 1 m/S 703 mmHg 96%
17:00 +18°C° 2.5 mm 1 m/S 703 mmHg 97%
18:00 +18°C° 2.9 mm 1 m/S 703 mmHg 96%
19:00 +17°C° 2.9 mm 2 m/S 704 mmHg 96%
20:00 +17°C° 2.9 mm 2 m/S 704 mmHg 96%
21:00 +18°C° 2.2 mm 1 m/S 704 mmHg 96%
22:00 +18°C° 2.2 mm 1 m/S 704 mmHg 96%
23:00 +18°C° 2.2 mm 1 m/S 703 mmHg 97%

3 November, Dienstag

Zeit Temperatur Niederschläge Wind Luftdruck Luftfeuchtigkeit
00:00 +18°C° 2.3 mm 1 m/S 703 mmHg 97%
01:00 +18°C° 2.3 mm 1 m/S 703 mmHg 97%
02:00 +18°C° 2.3 mm 1 m/S 703 mmHg 97%
03:00 +18°C° 1 mm 1 m/S 703 mmHg 97%
04:00 +17°C° 1 mm 2 m/S 703 mmHg 97%
05:00 +16°C° 1 mm 2 m/S 703 mmHg 96%
06:00 +16°C° 0.3 mm 1 m/S 703 mmHg 96%
07:00 +16°C° 0.3 mm 1 m/S 703 mmHg 96%
08:00 +16°C° 0.3 mm 1 m/S 703 mmHg 96%
09:00 +16°C° 0.2 mm 1 m/S 703 mmHg 96%
10:00 +18°C° 0.2 mm 1 m/S 703 mmHg 95%
11:00 +18°C° 0.2 mm 1 m/S 703 mmHg 95%
12:00 +18°C° 0.4 mm 1 m/S 702 mmHg 95%
13:00 +18°C° 0.4 mm 1 m/S 701 mmHg 96%
14:00 +18°C° 0.4 mm 1 m/S 701 mmHg 96%
15:00 +18°C° 0.7 mm 1 m/S 701 mmHg 96%
16:00 +18°C° 0.7 mm 1 m/S 701 mmHg 96%
17:00 +18°C° 0.7 mm 1 m/S 702 mmHg 96%
18:00 +18°C° 0.5 mm 1 m/S 702 mmHg 96%
19:00 +18°C° 0.5 mm 1 m/S 702 mmHg 96%
20:00 +18°C° 0.5 mm 1 m/S 703 mmHg 95%
21:00 +18°C° 0.4 mm 1 m/S 703 mmHg 96%
22:00 +16°C° 0.4 mm 0 m/S 703 mmHg 96%
23:00 +16°C° 0.4 mm 0 m/S 702 mmHg 96%
Mehr zeigen